Back to catalog

STARLINK-34549

AliveCommunicationsVLEO
NORAD 65017·PAYLOAD·🇺🇸 United States

Launched Jul 30, 2025 from Cape Canaveral Space Force Station

Loading…

Next Passes (next 24 hours)

TLE

FreshSource: CelesTrak SupGP

Epoch: Sep 14, 2026, 22:39 UTC

1 65017C 25161C   26257.94423611 -.00071697  00000+0 -21187-2 0  2575
2 65017  53.1567 133.3584 0001326  90.8137 159.8662 15.34421256    16

Track STARLINK-34549 in real time with AllMySat

Download on the App Store